CW7104 Weather Reports


time (UTC)temp
F
wind
direction
speed
knots
gust
knots
rain 1hr
in
rain 24hr
in
rain mn
in
humidity
%
barometer
mb
20260507212905 66 274 0.0 0.0 0.00 0.00 0.00 31 1015.8
20260507212404 66 339 0.0 0.0 0.00 0.00 0.00 33 1015.7
20260507211904 67 289 0.0 0.0 0.00 0.00 0.00 31 1015.6
20260507211404 68 339 0.0 0.0 0.00 0.00 0.00 32 1015.6
20260507210905 67 32 0.0 0.0 0.00 0.00 0.00 32 1015.6
20260507210404 67 54 0.0 0.0 0.00 0.00 0.00 33 1015.6
20260507205905 66 27 0.0 0.0 0.00 0.00 0.00 37 1015.6
20260507205404 66 347 0.0 0.0 0.00 0.00 0.00 31 1015.6
20260507204905 66 314 0.0 0.0 0.00 0.00 0.00 32 1015.7
20260507204404 66 284 0.0 0.0 0.00 0.00 0.00 32 1015.8
20260507203904 66 252 0.0 0.0 0.00 0.00 0.00 35 1015.8
20260507202404 66 0 0.0 0.0 0.00 0.00 0.00 34 1015.9
20260507201904 66 268 0.0 0.0 0.00 0.00 0.00 31 1015.9
20260507201404 66 291 0.0 0.0 0.00 0.00 0.00 31 1016.0
20260507200904 66 3 0.0 0.0 0.00 0.00 0.00 33 1016.0
20260507200404 66 339 0.0 0.0 0.00 0.00 0.00 33 1016.1
20260507195904 67 3 0.0 0.0 0.00 0.00 0.00 32 1016.1
20260507194905 67 39 0.0 0.0 0.00 0.00 0.00 34 1016.2
20260507193904 66 75 0.0 0.0 0.00 0.00 0.00 33 1016.4
20260507193404 66 4 0.0 0.0 0.00 0.00 0.00 31 1016.4
20260507192404 65 334 0.0 0.0 0.00 0.00 0.00 34 1016.4
20260507191904 65 296 0.0 0.0 0.00 0.00 0.00 32 1016.4
20260507191405 65 307 0.0 0.0 0.00 0.00 0.00 31 1016.5
20260507190404 64 38 0.0 0.0 0.00 0.00 0.00 33 1016.6
20260507185905 64 332 0.0 0.0 0.00 0.00 0.00 33 1016.6
20260507185404 64 329 0.0 0.0 0.00 0.00 0.00 31 1016.6
20260507184404 64 279 0.0 0.0 0.00 0.00 0.00 32 1016.7
20260507183904 64 356 0.0 0.0 0.00 0.00 0.00 32 1016.8
20260507182904 63 346 0.0 0.0 0.00 0.00 0.00 32 1016.7
20260507181904 63 323 0.0 0.0 0.00 0.00 0.00 33 1016.7
20260507181404 63 338 0.0 0.0 0.00 0.00 0.00 33 1016.7
20260507180904 62 139 0.0 0.0 0.00 0.00 0.00 34 1016.8
20260507180404 63 341 0.0 0.0 0.00 0.00 0.00 36 1017.0
20260507175904 63 345 0.0 0.0 0.00 0.00 0.00 34 1016.9
20260507175404 63 346 0.0 0.0 0.00 0.00 0.00 34 1017.0
20260507174904 63 0 0.0 0.0 0.00 0.00 0.00 38 1017.0
20260507173904 62 242 0.0 0.0 0.00 0.00 0.00 34 1017.2
20260507173404 62 358 0.0 0.0 0.00 0.00 0.00 38 1017.3
20260507172904 61 210 0.0 0.0 0.00 0.00 0.00 35 1017.4
20260507172404 62 358 0.0 0.0 0.00 0.00 0.00 34 1017.5
20260507171905 62 2 0.0 0.0 0.00 0.00 0.00 37 1017.4
20260507171404 62 352 0.0 0.0 0.00 0.00 0.00 35 1017.5
20260507170904 62 0 0.0 0.0 0.00 0.00 0.00 35 1017.5
20260507170404 62 325 0.0 0.0 0.00 0.00 0.00 36 1017.6
20260507165904 62 31 0.0 0.0 0.00 0.00 0.00 37 1017.6
20260507165404 61 8 0.0 0.0 0.00 0.00 0.00 39 1017.7
20260507164404 61 295 0.0 0.0 0.00 0.00 0.00 34 1017.7
20260507163904 61 297 0.0 0.0 0.00 0.00 0.00 34 1017.7
20260507163404 61 4 0.0 0.0 0.00 0.00 0.00 36 1017.7
20260507162904 61 9 0.0 0.0 0.00 0.00 0.00 38 1017.7
20260507162404 61 254 0.0 0.0 0.00 0.00 0.00 36 1017.9
20260507161904 61 265 0.0 0.0 0.00 0.00 0.00 36 1017.9
20260507161404 61 326 0.0 0.0 0.00 0.00 0.00 34 1017.9
20260507160904 61 16 0.0 0.0 0.00 0.00 0.00 38 1018.0
20260507160404 61 25 0.0 0.0 0.00 0.00 0.00 39 1017.9
20260507155404 60 304 0.0 0.0 0.00 0.00 0.00 39 1017.9
20260507154904 60 294 0.0 0.0 0.00 0.00 0.00 38 1018.0
20260507154404 60 324 0.0 0.0 0.00 0.00 0.00 38 1018.2
20260507153904 60 332 0.0 0.0 0.00 0.00 0.00 36 1018.3
20260507153404 60 323 0.0 0.0 0.00 0.00 0.00 34 1018.2
20260507152905 60 276 0.0 0.0 0.00 0.00 0.00 34 1018.2
20260507150904 60 21 0.0 0.0 0.00 0.00 0.00 37 1018.1
20260507150404 59 37 0.0 0.0 0.00 0.00 0.00 35 1018.1
20260507145904 59 16 0.0 0.0 0.00 0.00 0.00 37 1018.2
20260507144904 58 333 0.0 0.0 0.00 0.00 0.00 41 1018.2
20260507144404 58 31 0.0 0.0 0.00 0.00 0.00 40 1018.2
20260507143904 58 24 0.0 0.0 0.00 0.00 0.00 44 1018.1
20260507142904 57 25 0.0 0.0 0.00 0.00 0.00 48 1018.3
20260507142404 56 9 0.0 0.0 0.00 0.00 0.00 46 1018.3
20260507141904 55 48 0.0 0.0 0.00 0.00 0.00 49 1018.3
20260507141404 55 39 0.0 0.0 0.00 0.00 0.00 48 1018.3
20260507140903 54 45 0.0 0.0 0.00 0.00 0.00 49 1018.2
20260507140404 54 55 0.0 0.0 0.00 0.00 0.00 52 1018.2
20260507135905 53 31 0.0 0.0 0.00 0.00 0.00 52 1018.2
20260507135404 53 27 0.0 0.0 0.00 0.00 0.00 54 1018.3
20260507134904 52 23 0.0 0.0 0.00 0.00 0.00 53 1018.3
20260507133903 52 31 0.0 0.0 0.00 0.00 0.00 56 1018.2
20260507133404 51 29 0.0 0.0 0.00 0.00 0.00 55 1018.4
20260507132404 50 31 0.0 0.0 0.00 0.00 0.00 58 1018.2
20260507131906 50 67 0.0 0.0 0.00 0.00 0.00 60 1018.1
20260507130903 49 53 0.0 0.0 0.00 0.00 0.00 62 1018.0
20260507130404 48 67 0.0 0.0 0.00 0.00 0.00 63 1018.0
20260507125904 48 68 0.0 0.0 0.00 0.00 0.00 64 1017.9
20260507125404 47 38 0.0 0.0 0.00 0.00 0.00 69 1017.9
20260507124904 47 9 0.0 0.0 0.00 0.00 0.00 69 1018.0
20260507124404 46 10 0.0 0.0 0.00 0.00 0.00 72 1017.9
20260507123904 46 9 0.0 0.0 0.00 0.00 0.00 73 1017.9
20260507123404 46 9 0.0 0.0 0.00 0.00 0.00 74 1017.9
20260507122903 45 10 0.0 0.0 0.00 0.00 0.00 73 1017.8
20260507122404 45 10 0.0 0.0 0.00 0.00 0.00 74 1017.8
20260507121403 44 11 0.0 0.0 0.00 0.00 0.00 74 1017.8
20260507120904 44 7 0.0 0.0 0.00 0.00 0.00 75 1017.8
20260507120404 44 9 0.0 0.0 0.00 0.00 0.00 76 1017.7
20260507115903 43 9 0.0 0.0 0.00 0.00 0.00 76 1017.6
20260507114903 42 9 0.0 0.0 0.00 0.00 0.00 78 1017.6
20260507114404 42 9 0.0 0.0 0.00 0.00 0.00 78 1017.6
20260507113404 41 9 0.0 0.0 0.00 0.00 0.00 78 1017.5
20260507112904 41 9 0.0 0.0 0.00 0.00 0.00 78 1017.5
20260507111404 40 9 0.0 0.0 0.00 0.00 0.00 77 1017.5
20260507110903 40 9 0.0 0.0 0.00 0.00 0.00 77 1017.4
20260507105903 41 10 0.0 0.0 0.00 0.00 0.00 76 1017.5
20260507105404 41 9 0.0 0.0 0.00 0.00 0.00 76 1017.5
20260507104903 41 9 0.0 0.0 0.00 0.00 0.00 76 1017.5
20260507104404 41 9 0.0 0.0 0.00 0.00 0.00 76 1017.5
20260507103904 41 9 0.0 0.0 0.00 0.00 0.00 75 1017.5
20260507103403 41 9 0.0 0.0 0.00 0.00 0.00 75 1017.6
20260507102904 42 10 0.0 0.0 0.00 0.00 0.00 75 1017.6
20260507101904 42 9 0.0 0.0 0.00 0.00 0.00 74 1017.5
20260507101404 43 9 0.0 0.0 0.00 0.00 0.00 73 1017.6
20260507100903 43 10 0.0 0.0 0.00 0.00 0.00 74 1017.6
20260507095903 43 10 0.0 0.0 0.00 0.00 0.00 73 1017.6
20260507095404 44 10 0.0 0.0 0.00 0.00 0.00 74 1017.6
20260507094904 44 10 0.0 0.0 0.00 0.00 0.00 74 1017.4
20260507093904 44 10 0.0 0.0 0.00 0.00 0.00 74 1017.4
20260507093404 44 10 0.0 0.0 0.00 0.00 0.00 74 1017.4
20260507092903 44 11 0.0 0.0 0.00 0.00 0.00 75 1017.3
20260507092404 44 9 0.0 0.0 0.00 0.00 0.00 75 1017.2
20260507091904 44 6 0.0 0.0 0.00 0.00 0.00 75 1017.2
20260507090904 44 8 0.0 0.0 0.00 0.00 0.00 74 1017.1
20260507085905 45 12 0.0 0.0 0.00 0.00 0.00 74 1017.1
20260507085406 45 12 0.0 0.0 0.00 0.00 0.00 74 1017.1
20260507084905 46 12 0.0 0.0 0.00 0.00 0.00 74 1017.0
20260507084405 46 13 0.0 0.0 0.00 0.00 0.00 74 1017.0
20260507083905 46 12 0.0 0.0 0.00 0.00 0.00 74 1016.9
20260507083405 46 12 0.0 0.0 0.00 0.00 0.00 74 1016.9
20260507082905 46 12 0.0 0.0 0.00 0.00 0.00 74 1016.8
20260507082405 46 12 0.0 0.0 0.00 0.00 0.00 74 1016.8
20260507080405 46 12 0.0 0.0 0.00 0.00 0.00 74 1016.7
20260507075905 46 12 0.0 0.0 0.00 0.00 0.00 74 1016.6
20260507075406 46 12 0.0 0.0 0.00 0.00 0.00 74 1016.6
20260507073405 47 12 0.0 0.0 0.00 0.00 0.00 75 1016.4
20260507072405 47 12 0.0 0.0 0.00 0.00 0.00 75 1016.4
20260507071905 47 12 0.0 0.0 0.00 0.00 0.00 76 1016.3
20260507071405 47 12 0.0 0.0 0.00 0.00 0.00 76 1016.3
20260507070905 47 12 0.0 0.0 0.00 0.00 0.00 76 1016.4
20260507070405 47 12 0.0 0.0 0.00 0.00 0.00 76 1016.4
20260507065906 47 12 0.0 0.0 0.00 0.00 0.00 76 1016.4
20260507065405 47 12 0.0 0.0 0.00 0.00 0.00 76 1016.4
20260507064905 47 12 0.0 0.0 0.00 0.00 0.00 76 1016.5
20260507064405 47 12 0.0 0.0 0.00 0.00 0.00 76 1016.4
20260507063905 47 12 0.0 0.0 0.00 0.00 0.00 76 1016.5
20260507063405 47 12 0.0 0.0 0.00 0.00 0.00 76 1016.5
20260507062905 47 12 0.0 0.0 0.00 0.00 0.00 76 1016.5
20260507062406 47 12 0.0 0.0 0.00 0.00 0.00 76 1016.6
20260507061905 48 12 0.0 0.0 0.00 0.00 0.00 76 1016.7
20260507061405 48 12 0.0 0.0 0.00 0.00 0.00 76 1016.6
20260507060905 48 12 0.0 0.0 0.00 0.00 0.00 75 1016.6
20260507060404 48 12 0.0 0.0 0.00 0.00 0.00 75 1016.7
20260507055404 49 13 0.0 0.0 0.00 0.00 0.00 75 1016.6
20260507054905 49 12 0.0 0.0 0.00 0.00 0.00 75 1016.6
20260507054404 49 12 0.0 0.0 0.00 0.00 0.00 75 1016.5
20260507053405 49 12 0.0 0.0 0.00 0.00 0.00 76 1016.7
20260507052905 49 13 0.0 0.0 0.00 0.00 0.00 76 1016.7
20260507052405 49 12 0.0 0.0 0.00 0.00 0.00 77 1016.8
20260507051905 49 12 0.0 0.0 0.00 0.00 0.00 77 1016.9
20260507051405 49 7 0.0 0.0 0.00 0.00 0.00 77 1016.9
20260507050905 49 12 0.0 0.0 0.00 0.00 0.00 77 1016.8
20260507050405 49 13 0.0 0.0 0.00 0.00 0.00 77 1016.8
20260507045905 49 12 0.0 0.0 0.00 0.00 0.00 77 1016.8
20260507045405 49 12 0.0 0.0 0.00 0.00 0.00 77 1016.6
20260507044905 49 11 0.0 0.0 0.00 0.00 0.00 77 1016.5
20260507044405 49 13 0.0 0.0 0.00 0.00 0.00 78 1016.4
20260507043905 49 13 0.0 0.0 0.00 0.00 0.00 78 1016.5
20260507042905 49 5 0.0 0.0 0.00 0.00 0.00 78 1016.7
20260507042405 49 8 0.0 0.0 0.00 0.00 0.00 78 1016.6
20260507041905 49 11 0.0 0.0 0.00 0.00 0.00 78 1016.5
20260507041405 49 14 0.0 0.0 0.00 0.00 0.00 78 1016.3
20260507040905 49 12 0.0 0.0 0.00 0.00 0.00 78 1016.3
20260507040405 50 9 0.0 0.0 0.00 0.00 0.00 77 1016.4
20260507035905 49 9 0.0 0.0 0.00 0.00 0.00 77 1016.4
20260507035405 49 13 0.0 0.0 0.00 0.00 0.00 77 1016.5
20260507034404 49 8 0.0 0.0 0.00 0.00 0.00 76 1016.6
20260507033905 49 15 0.0 0.0 0.00 0.00 0.00 76 1016.5
20260507033405 49 15 0.0 0.0 0.00 0.00 0.00 75 1016.6
20260507032906 49 15 0.0 0.0 0.00 0.00 0.00 74 1016.6
20260507032405 49 15 0.0 0.0 0.00 0.00 0.00 74 1016.6
20260507031905 49 15 0.0 0.0 0.00 0.00 0.00 74 1016.6
20260507030905 50 15 0.0 0.0 0.00 0.00 0.00 74 1016.7
20260507030405 50 15 0.0 0.0 0.00 0.00 0.00 74 1016.8
20260507025905 50 15 0.0 0.0 0.00 0.00 0.00 74 1016.7
20260507024905 50 15 0.0 0.0 0.00 0.00 0.00 72 1016.8
20260507024405 51 15 0.0 0.0 0.00 0.00 0.00 72 1016.7
20260507023905 51 14 0.0 0.0 0.00 0.00 0.00 72 1016.5
20260507023405 51 15 0.0 0.0 0.00 0.00 0.00 72 1016.5
20260507022904 51 15 0.0 0.0 0.00 0.00 0.00 72 1016.6
20260507021905 51 15 0.0 0.0 0.00 0.00 0.00 71 1016.6
20260507021405 51 15 0.0 0.0 0.00 0.00 0.00 70 1016.5
20260507020905 52 15 0.0 0.0 0.00 0.00 0.00 70 1016.4
20260507020405 52 15 0.0 0.0 0.00 0.00 0.00 70 1016.4
20260507015405 52 15 0.0 0.0 0.00 0.00 0.00 69 1016.3
20260507014904 53 15 0.0 0.0 0.00 0.00 0.00 68 1016.2
20260507014405 53 15 0.0 0.0 0.00 0.00 0.00 68 1016.1
20260507013904 53 15 0.0 0.0 0.00 0.00 0.00 67 1016.2
20260507013405 54 15 0.0 0.0 0.00 0.00 0.00 66 1016.0
20260507011904 55 15 0.0 0.0 0.00 0.00 0.00 65 1015.4
20260507011405 55 15 0.0 0.0 0.00 0.00 0.00 64 1015.5
20260507005905 57 15 0.0 0.0 0.00 0.00 0.00 63 1015.4
20260507005405 57 15 0.0 0.0 0.00 0.00 0.00 62 1015.3
20260507004904 57 13 0.0 0.0 0.00 0.00 0.00 61 1015.2
20260507003904 58 10 0.0 0.0 0.00 0.00 0.00 61 1015.3
20260507003405 58 13 0.0 0.0 0.00 0.00 0.00 61 1015.4
20260507002905 58 13 0.0 0.0 0.00 0.00 0.00 60 1015.3
20260507002404 58 14 0.0 0.0 0.00 0.00 0.00 59 1015.2
20260507001404 59 14 0.0 0.0 0.00 0.00 0.00 58 1015.2
20260507000905 59 14 0.0 0.0 0.00 0.00 0.00 57 1015.2
20260507000406 59 14 0.0 0.0 0.00 0.00 0.00 56 1015.0
20260506235905 60 14 0.0 0.0 0.00 0.00 0.00 55 1015.1
20260506235404 60 14 0.0 0.0 0.00 0.00 0.00 54 1014.9
20260506233904 61 38 0.0 0.0 0.00 0.00 0.00 53 1014.8
20260506233404 61 27 0.0 0.0 0.00 0.00 0.00 51 1014.9
20260506232905 61 40 0.0 0.0 0.00 0.00 0.00 51 1015.0
20260506232405 61 10 0.0 0.0 0.00 0.00 0.00 52 1015.0
20260506231404 61 329 0.0 0.0 0.00 0.00 0.00 51 1014.9
20260506230404 61 348 0.0 0.0 0.00 0.00 0.00 51 1014.8
20260506225904 61 305 0.0 0.0 0.00 0.00 0.00 52 1015.0
20260506225405 60 315 0.0 5.2 0.00 0.00 0.00 52 1015.0
20260506224405 60 44 0.9 6.1 0.00 0.00 0.00 51 1015.1
20260506223905 60 350 0.9 4.3 0.00 0.00 0.00 49 1015.0
20260506223404 61 348 0.0 4.3 0.00 0.00 0.00 53 1015.0
20260506222904 61 6 0.0 0.9 0.00 0.00 0.00 57 1015.2
20260506222405 60 341 0.0 2.6 0.00 0.00 0.00 57 1015.2
20260506221905 60 333 0.0 4.3 0.00 0.00 0.00 55 1015.1
20260506221405 60 343 0.9 5.2 0.00 0.00 0.00 54 1015.2
20260506220904 60 350 0.0 0.0 0.00 0.00 0.00 53 1015.2
20260506220405 60 0 0.0 0.0 0.00 0.00 0.00 53 1015.1
20260506215904 60 355 0.0 0.9 0.00 0.00 0.00 53 1015.2
20260506215405 61 356 0.9 5.2 0.00 0.00 0.00 52 1015.2
20260506214904 61 326 1.7 7.0 0.00 0.00 0.00 50 1015.1
20260506214404 61 23 0.9 5.2 0.00 0.00 0.00 51 1015.1
20260506213904 61 346 0.9 6.1 0.00 0.00 0.00 50 1015.0